This is the latest recevied weather packets stored in our database for station/object SV4JYD-13. If no packets are shown the sender has not sent any weather packets the latest 10 day(s).
| Time | Temp. | Humidity | Pressure | Rain* | Wind** | Luminosity | Snow |
|---|---|---|---|---|---|---|---|
| 1777755353 | 10.56° C | 81% | 1020 hPa | 0 mm | - | - | - |
| 1777754452 | 10.56° C | 78% | 1020 hPa | 0 mm | - | - | - |
| 1777753552 | 10.56° C | 78% | 1020 hPa | 0 mm | - | - | - |
| 1777752652 | 10.56° C | 77% | 1020 hPa | 0 mm | - | - | - |
| 1777751752 | 11.11° C | 76% | 1020 hPa | 0 mm | - | - | - |
| 1777750852 | 11.11° C | 75% | 1020 hPa | 0 mm | - | - | - |
| 1777749952 | 11.11° C | 70% | 1020 hPa | 0 mm | - | - | - |
| 1777749744 | 11.11° C | 70% | 1020 hPa | 0 mm | - | - | - |
| 1777748844 | 11.67° C | 68% | 1020 hPa | 0 mm | - | - | - |
| 1777747943 | 12.22° C | 65% | 1020 hPa | 0 mm | - | - | - |
| 1777747043 | 12.78° C | 57% | 1020 hPa | 0 mm | - | - | - |
| 1777746143 | 12.78° C | 55% | 1020 hPa | 0 mm | - | - | - |
| 1777745243 | 12.78° C | 57% | 1020 hPa | 0 mm | - | - | - |
| 1777744342 | 12.78° C | 60% | 1020 hPa | 0 mm | - | - | - |
| 1777743442 | 13.33° C | 54% | 1020 hPa | 0 mm | - | - | - |
| 1777742542 | 13.89° C | 57% | 1020 hPa | 0 mm | - | - | - |
| 1777741642 | 13.33° C | 53% | 1019 hPa | 0 mm | - | - | - |
| 1777740741 | 13.89° C | 53% | 1019 hPa | 0 mm | - | - | - |
| 1777739841 | 15° C | 51% | 1019 hPa | 0 mm | - | - | - |
| 1777738941 | 15° C | 51% | 1019 hPa | 0 mm | - | - | - |
| 1777738041 | 15° C | 50% | 1020 hPa | 0 mm | - | - | - |
| 1777737141 | 15° C | 49% | 1019 hPa | 0 mm | - | - | - |
| 1777736240 | 15° C | 47% | 1019 hPa | 0 mm | - | - | - |
| 1777735340 | 15° C | 40% | 1020 hPa | 0 mm | - | - | - |
| 1777734440 | 15° C | 40% | 1020 hPa | 0 mm | - | - | - |
* Rain latest hour (hover to see other rain measurements)
** Current wind speed in m/s (hover to see current wind gust speed)